[[{"header":{"parameterUnit":"m.s-1","parameterCategory":1,"la1":30.2991,"la2":30.254,"lo1":-89.0895,"lo2":-89.0444,"dy":0.0017,"dx":0.0017,"nx":28,"ny":28,"refTime":"2025-09-14T09:00:00:Z","depth":0,"parameterNumber":2,"parameterNumberName":"U-component_of_WINDS"},"data":[0,0,0,0,0,0,0,0,0,0,0,0,0,0,0,0,0,0,0,0,0,0,0,0,0,0,0,0,0,0,0,0,0,0,0,0,0,0,0,0,0,0,0,0,0,0,0,0,0,0,0,0,0,0,0,0,0,0,0.5107,0.5107,0,0.5121,0.5121,0.5121,0.5115,0.5115,0.5114,0.5114,0.5128,0.5129,0.513,0,0,0,0,0,0,0,0,0,0,0,0,0,0.5072,0.5072,0.5106,0.5107,0.5107,0.5121,0.5121,0.5121,0.5115,0.5115,0.5114,0.5114,0.5128,0.5129,0.513,0,0,0,0,0,0,0,0,0,0,0,0,0,0.5086,0.5073,0.5106,0.5105,0.5105,0.5121,0.5121,0.5121,0.5115,0.5115,0.5114,0.5114,0.5128,0.5129,0.513,0.5147,0,0,0.5133,0.5133,0,0,0,0,0,0,0,0,0.5086,0.5088,0.5105,0.5106,0.5106,0.5116,0.5114,0.513,0.5115,0.5111,0.5114,0.5113,0.5124,0.5126,0.513,0.5147,0.5148,0.5133,0.5134,0.5134,0.5134,0,0,0,0,0,0,0,0.5085,0.5087,0.5112,0.5106,0.5106,0.5104,0.5105,0.5117,0.5121,0.5112,0.5111,0.5113,0.5124,0.5128,0.513,0.5148,0.5133,0.5134,0.5135,0.5135,0.5178,0.5178,0,0,0,0,0,0,0.5084,0.5086,0.5112,0.5113,0.5094,0.5105,0.5106,0.5113,0.5121,0.5121,0.5114,0.5113,0.5127,0.5129,0.513,0.5149,0.5134,0.5135,0.5136,0.5177,0.5178,0.5178,0,0,0,0,0,0,0.5083,0.5086,0.5111,0.5099,0.5102,0.5106,0.5113,0.5113,0.5118,0.5122,0.5122,0.5117,0.5127,0.5129,0.5142,0.5149,0.5136,0.5137,0.5177,0.5178,0.5178,0.5187,0,0,0,0,0,0,0.5082,0.5086,0.5093,0.51,0.5103,0.5123,0.5114,0.5114,0.512,0.5119,0.5125,0.5126,0.5126,0.5141,0.5143,0.515,0.5137,0.5176,0.5177,0.5178,0.5186,0.5188,0.519,0,0,0,0,0,0.5081,0.5095,0.5093,0.5097,0.5112,0.5124,0.5126,0.5126,0.512,0.5127,0.5129,0.5126,0.5148,0.5142,0.5145,0.5153,0.5176,0.5177,0.5178,0.5185,0.5188,0.519,0,0,0,0,0,0,0.509,0.5096,0.5094,0.5112,0.5117,0.5123,0.5131,0.5129,0.5136,0.5135,0.5135,0.5136,0.5149,0.5152,0.5145,0.5168,0.5161,0.5163,0.5166,0.5168,0.5169,0.5168,0.5138,0,0,0,0,0,0.5094,0.5104,0.5108,0.5123,0.5126,0.5128,0.5133,0.5133,0.5138,0.5141,0.5144,0.515,0.5158,0.5163,0.5171,0.5187,0.5187,0.5193,0.5195,0.5196,0.5198,0.5204,0.5206,0.5182,0.5182,0.5182,0,0,0.5103,0.5107,0.5113,0.5125,0.5129,0.5138,0.513,0.5141,0.5147,0.5142,0.5155,0.5157,0.5163,0.5177,0.5183,0.518,0.5204,0.5198,0.5199,0.5199,0.5205,0.5208,0.521,0.5183,0.5183,0.5183,0,0,0.5122,0.5128,0.5139,0.5143,0.5149,0.515,0.5153,0.5159,0.516,0.5172,0.5169,0.5176,0.519,0.5194,0.5197,0.5216,0.5213,0.5219,0.5227,0.5234,0.5236,0.5237,0.5242,0.5244,0.522,0.522,0.522,0,0.5132,0.5146,0.5146,0.5155,0.516,0.5156,0.5166,0.5171,0.5179,0.5182,0.5178,0.5194,0.5198,0.5212,0.5216,0.522,0.5222,0.5218,0.5235,0.5237,0.5239,0.5243,0.5245,0.5221,0.522,0.522,0.522,0,0.5156,0.5166,0.5174,0.5182,0.5187,0.5198,0.5198,0.5203,0.5202,0.5203,0.5214,0.5218,0.5226,0.5229,0.5228,0.5242,0.5239,0.5235,0.5228,0.5241,0.5246,0.5248,0.5221,0.5221,0.5221,0.5221,0,0,0.5183,0.5189,0.5192,0.5194,0.52,0.5207,0.5216,0.5223,0.5227,0.5232,0.5239,0.525,0.5246,0.525,0.525,0.5255,0.5267,0.525,0.525,0.5252,0.5281,0.5283,0.5285,0.5265,0.5266,0.5266,0.528,0,0.5202,0.5218,0.5217,0.5232,0.524,0.5235,0.5243,0.5247,0.5248,0.5253,0.5254,0.5261,0.5256,0.5258,0.5264,0.5265,0.5273,0.5264,0.527,0.5271,0.5268,0.5288,0.529,0.5303,0.5281,0.5282,0.5282,0,0.5226,0.5231,0.5247,0.5249,0.5253,0.526,0.5265,0.5271,0.5274,0.5274,0.5278,0.5276,0.5284,0.5277,0.5287,0.5281,0.5284,0.5284,0.5285,0.5285,0.5277,0.5287,0.5308,0.5309,0.5285,0.5285,0.5285,0,0.5242,0.5253,0.5263,0.5265,0.5269,0.5274,0.5276,0.5279,0.5282,0.5287,0.5289,0.5294,0.5297,0.5301,0.5299,0.5295,0.5309,0.5303,0.5309,0.5309,0.5312,0.5311,0.5332,0.5315,0.5315,0.5315,0.5315,0,0.5262,0.5271,0.527,0.5276,0.5286,0.5284,0.5294,0.5295,0.5297,0.5302,0.5299,0.5304,0.5303,0.5308,0.5307,0.5314,0.5316,0.5316,0.5315,0.5315,0.5315,0.5317,0.5315,0.5316,0.5315,0.5315,0.5315,0,0.5281,0.5281,0.5291,0.5293,0.5294,0.5301,0.5302,0.5307,0.5307,0.5314,0.5316,0.5316,0.5321,0.532,0.5326,0.5325,0.5335,0.5334,0.5333,0.5333,0.5338,0.5337,0.536,0.5362,0.5345,0.5345,0.5345,0,0.5293,0.53,0.5302,0.5306,0.5307,0.5313,0.5316,0.5314,0.5318,0.5321,0.5326,0.5331,0.5334,0.5343,0.5343,0.5347,0.5346,0.5353,0.5346,0.5346,0.5344,0.5343,0.5343,0.5354,0.5354,0.5355,0.5355,0,0.5315,0.5314,0.5318,0.5323,0.5326,0.533,0.5333,0.5335,0.5334,0.5337,0.5343,0.5345,0.5351,0.5355,0.5359,0.536,0.5357,0.5357,0.5358,0.5358,0.5357,0.5356,0.5336,0.5356,0.5356,0.5356,0.5356,0.5356,0.533,0.5335,0.5336,0.5341,0.5343,0.5346,0.535,0.535,0.5354,0.5358,0.5357,0.5362,0.5364,0.5368,0.537,0.5373,0.5371,0.5373,0.5373,0.5374,0.5374,0.5357,0.5374,0.5374,0.5374,0.5374,0.5374,0,0.5349,0.535,0.5355,0.5358,0.5362,0.5358,0.5361,0.5364,0.5368,0.537,0.5374,0.5379,0.5382,0.5382,0.5386,0.5389,0.5387,0.5389,0.5389,0.5389,0.5377,0.5375,0.5391,0.5391,0.539,0.539,0.539,0.539,0.536,0.5368,0.5367,0.5375,0.5375,0.538,0.5382,0.5384,0.5385,0.539,0.5393,0.5393,0.5394,0.5397,0.54,0.54,0.5401,0.5403,0.5403,0.5391,0.539,0.5388,0.5386,0.5404,0.5404,0.5414,0.5414,0.5414]},{"header":{"parameterUnit":"m.s-1","parameterCategory":1,"la1":30.2991,"la2":30.254,"lo1":-89.0895,"lo2":-89.0444,"dy":0.0017,"dx":0.0017,"nx":28,"ny":28,"refTime":"2025-09-14T09:00:00:Z","depth":0,"parameterNumber":3,"parameterNumberName":"V-component_of_WINDS"},"data":[0,0,0,0,0,0,0,0,0,0,0,0,0,0,0,0,0,0,0,0,0,0,0,0,0,0,0,0,0,0,0,0,0,0,0,0,0,0,0,0,0,0,0,0,0,0,0,0,0,0,0,0,0,0,0,0,0,0,3.7853,3.7852,0,3.7743,3.7742,3.774,3.7647,3.7646,3.7645,3.7644,3.7525,3.7523,3.7521,0,0,0,0,0,0,0,0,0,0,0,0,0,3.7977,3.7976,3.7853,3.7852,3.7851,3.7743,3.7742,3.774,3.7647,3.7646,3.7645,3.7644,3.7526,3.7523,3.752,0,0,0,0,0,0,0,0,0,0,0,0,0,3.7901,3.7975,3.7854,3.7791,3.7785,3.7744,3.7742,3.774,3.7647,3.7646,3.7644,3.7643,3.7527,3.7523,3.752,3.753,0,0,3.751,3.7508,0,0,0,0,0,0,0,0,3.7905,3.7896,3.7802,3.7796,3.7788,3.7707,3.7742,3.7669,3.7648,3.7699,3.7644,3.7642,3.7586,3.7578,3.756,3.7524,3.7519,3.7509,3.7507,3.7506,3.7505,0,0,0,0,0,0,0,3.7911,3.7901,3.7809,3.7801,3.7792,3.7767,3.7754,3.7727,3.7652,3.7695,3.7688,3.7676,3.7582,3.7564,3.7557,3.7517,3.751,3.7507,3.7505,3.7503,3.7481,3.7482,0,0,0,0,0,0,3.7926,3.7906,3.7813,3.7806,3.7844,3.7766,3.7752,3.7735,3.7653,3.7639,3.7678,3.7672,3.757,3.7561,3.7552,3.7557,3.7506,3.7503,3.7501,3.748,3.7481,3.7483,0,0,0,0,0,0,3.7929,3.7919,3.7817,3.7854,3.7839,3.7766,3.7747,3.7733,3.7715,3.764,3.7625,3.7673,3.7569,3.7557,3.7536,3.7552,3.7501,3.7498,3.7478,3.748,3.7482,3.7568,0,0,0,0,0,0,3.7933,3.7921,3.7925,3.7855,3.7838,3.7805,3.7748,3.7732,3.771,3.7702,3.7632,3.7618,3.7567,3.7542,3.7533,3.7546,3.7496,3.7476,3.7479,3.7482,3.7563,3.7572,3.7581,0,0,0,0,0,3.7938,3.7953,3.7926,3.7915,3.7842,3.7806,3.7796,3.7738,3.7712,3.7714,3.7666,3.7621,3.7552,3.754,3.7529,3.7542,3.7475,3.7478,3.7481,3.7559,3.7571,3.758,0,0,0,0,0,0,3.8024,3.7942,3.7912,3.7904,3.7863,3.7791,3.7792,3.7752,3.7716,3.771,3.7637,3.7622,3.7609,3.7573,3.7562,3.7546,3.7507,3.7508,3.757,3.758,3.7589,3.7597,3.7493,0,0,0,0,0,3.8043,3.8023,3.7951,3.7951,3.7933,3.7867,3.7849,3.7808,3.7761,3.7743,3.7693,3.7648,3.7616,3.7596,3.7563,3.7558,3.754,3.7561,3.757,3.7577,3.7579,3.7572,3.758,3.7493,3.7493,3.7493,0,0,3.808,3.8033,3.8024,3.7968,3.7931,3.791,3.7852,3.7832,3.7815,3.7739,3.7716,3.7678,3.7623,3.761,3.7602,3.758,3.7599,3.7581,3.7588,3.7585,3.7576,3.7584,3.7592,3.7496,3.7495,3.7495,0,0,3.8137,3.81,3.8096,3.8061,3.8007,3.7963,3.7962,3.7895,3.7868,3.7844,3.7786,3.7764,3.7711,3.7674,3.7648,3.7691,3.7647,3.7682,3.7727,3.7721,3.7728,3.7734,3.7748,3.7754,3.7684,3.7684,3.7684,0,3.819,3.8157,3.8098,3.8082,3.8058,3.799,3.7984,3.7952,3.7889,3.7873,3.7851,3.7782,3.774,3.7717,3.7728,3.7709,3.7704,3.7689,3.7732,3.7737,3.7742,3.7754,3.776,3.7689,3.7688,3.7688,3.7687,0,3.8224,3.8202,3.8205,3.8148,3.8124,3.8113,3.805,3.8033,3.7994,3.7952,3.7928,3.7876,3.783,3.7822,3.7783,3.7792,3.778,3.7746,3.7705,3.7755,3.7766,3.777,3.7695,3.7693,3.7692,3.7691,0,0,3.8331,3.8242,3.8244,3.8217,3.8153,3.8134,3.8119,3.8076,3.8062,3.8021,3.8005,3.7962,3.793,3.7901,3.7857,3.7852,3.7888,3.7818,3.7815,3.7832,3.7894,3.7919,3.7926,3.786,3.786,3.7861,3.7898,0,3.8376,3.8348,3.8294,3.8282,3.826,3.8196,3.8182,3.8141,3.8101,3.8075,3.8029,3.8,3.796,3.7942,3.7935,3.7886,3.7899,3.7882,3.7842,3.7841,3.7857,3.7932,3.7958,3.7996,3.7902,3.7902,3.7903,0,3.8425,3.839,3.8377,3.8313,3.8302,3.8292,3.8248,3.8225,3.8175,3.8146,3.8114,3.8067,3.8045,3.8009,3.7977,3.7967,3.7947,3.7921,3.792,3.7913,3.7874,3.7925,3.8007,3.8012,3.7909,3.7908,3.7908,0,3.8503,3.8452,3.8437,3.8416,3.8343,3.8336,3.8305,3.8254,3.8232,3.8193,3.8177,3.8136,3.8113,3.8081,3.8022,3.8002,3.7996,3.7956,3.797,3.7971,3.797,3.7971,3.8049,3.796,3.796,3.796,3.796,0,3.8558,3.8552,3.8471,3.8462,3.8453,3.839,3.8382,3.8344,3.8299,3.828,3.8221,3.8204,3.8129,3.8102,3.8056,3.8036,3.8026,3.8,3.7988,3.8005,3.8008,3.799,3.7985,3.7962,3.7961,3.7961,3.7961,0,3.8643,3.8589,3.8568,3.8501,3.8484,3.848,3.8421,3.8408,3.8365,3.8341,3.8332,3.8264,3.8229,3.8169,3.8116,3.8085,3.8073,3.8053,3.8091,3.8083,3.8101,3.8099,3.8168,3.8174,3.8084,3.8085,3.8085,0,3.8682,3.8676,3.8608,3.8592,3.8564,3.8538,3.8516,3.8453,3.8432,3.8375,3.8369,3.833,3.8296,3.8243,3.8187,3.8147,3.8124,3.8151,3.8117,3.8134,3.8123,3.8123,3.8122,3.8158,3.816,3.8161,3.8162,0,3.8755,3.8729,3.87,3.8661,3.8637,3.8603,3.8565,3.8555,3.8484,3.8462,3.8428,3.8401,3.8348,3.831,3.8261,3.8226,3.8181,3.8173,3.8174,3.819,3.8212,3.8199,3.8111,3.8171,3.817,3.817,3.8169,3.8169,3.8816,3.8808,3.8759,3.8729,3.8695,3.8662,3.8647,3.8603,3.8573,3.8527,3.8491,3.8459,3.8408,3.8338,3.8306,3.8278,3.8257,3.8259,3.8259,3.826,3.8266,3.8218,3.8269,3.8268,3.8268,3.8268,3.8268,0,3.8885,3.8852,3.8824,3.8775,3.8751,3.8714,3.8671,3.8652,3.8625,3.8582,3.855,3.851,3.8472,3.8414,3.8372,3.836,3.8339,3.8351,3.835,3.8343,3.8288,3.8291,3.8369,3.8369,3.8369,3.8369,3.8369,3.8369,3.8919,3.8902,3.887,3.8836,3.88,3.877,3.8749,3.8717,3.8683,3.8641,3.8611,3.8574,3.8524,3.8478,3.8441,3.8424,3.8411,3.843,3.8407,3.8356,3.8347,3.8338,3.834,3.8427,3.8428,3.8463,3.8464,3.8464]}]]